{"data":{"norad_id":67572,"intl_designator":"2026-016M","name":"STARLINK-36350","alt_names":[],"object_type":"PAYLOAD","status":"ACTIVE","operator":null,"country":"US","launch_date":"2026-01-25","launch_site_code":"AFWTR","launch_vehicle":null,"mission":null,"orbit_class":"UNKNOWN","rcs_meters":null,"size_class":null,"mass_kg":null,"dimensions":null,"purposes":["comms"],"wikipedia_slug":null,"has_3d_model":false,"image_url":null,"decayed_at":null,"tle_current":{"epoch":"2026-05-25T03:54:10.219392Z","epoch_age_seconds":54390,"freshness":"FRESH","line1":"1 67572U 26016M   26145.16261828  .00020315  00000+0  62979-3 0  9990","line2":"2 67572  97.2840 205.4888 0000617  97.3063 262.8250 15.33450560 18585","mean_motion":15.3345056,"eccentricity":6.17e-5,"inclination_deg":97.284,"raan_deg":205.4888,"arg_perigee_deg":97.3063,"mean_anomaly_deg":262.825,"bstar":0.00062979,"rev_number":1858,"period_min":93.905864170802,"perigee_km":465.10437783382,"apogee_km":465.948885926,"semimajor_km":6843.6636318799,"source":"CELESTRAK","updated_at":"2026-05-25T13:38:21.615328Z"}}}